| time (UTC) | temp F | wind direction | speed MPH | gust MPH | rain 1hr in | rain 24hr in | rain mn in | humidity % | barometer mb |
| 20260906183348 | 0 | 138 | 9.0 | 17.0 | 0.00 | 0.00 | 0.00 | 1017.6 | |
| 20260906182848 | 0 | 91 | 9.0 | 14.0 | 0.00 | 0.00 | 0.00 | 1017.6 | |
| 20260906182342 | 0 | 95 | 8.0 | 14.0 | 0.00 | 0.00 | 0.00 | 1017.5 | |
| 20260906181842 | 0 | 116 | 9.0 | 14.0 | 0.00 | 0.00 | 0.00 | 1017.4 | |
| 20260906181342 | 0 | 77 | 9.0 | 14.0 | 0.00 | 0.00 | 0.00 | 1017.4 | |
| 20260906180918 | 0 | 108 | 9.0 | 14.0 | 0.00 | 0.00 | 0.00 | 1017.5 | |
| 20260906175842 | 0 | 50 | 8.0 | 14.0 | 0.00 | 0.00 | 0.00 | 1017.5 | |
| 20260906175341 | 0 | 96 | 8.0 | 14.0 | 0.00 | 0.00 | 0.00 | 1017.5 | |
| 20260906174841 | 0 | 108 | 7.0 | 13.0 | 0.00 | 0.00 | 0.00 | 1017.6 | |
| 20260906174339 | 0 | 84 | 7.0 | 13.0 | 0.00 | 0.00 | 0.00 | 1017.5 | |
| 20260906174135 | 0 | 135 | 9.0 | 13.0 | 0.00 | 0.00 | 0.00 | 1017.5 | |
| 20260906173340 | 0 | 103 | 8.0 | 13.0 | 0.00 | 0.00 | 0.00 | 1017.4 | |
| 20260906172914 | 0 | 136 | 5.0 | 13.0 | 0.00 | 0.00 | 0.00 | 1017.3 | |
| 20260906171831 | 0 | 185 | 6.0 | 13.0 | 0.00 | 0.00 | 0.00 | 1017.4 | |
| 20260906171331 | 0 | 164 | 7.0 | 12.0 | 0.00 | 0.00 | 0.00 | 1017.5 | |
| 20260906170831 | 0 | 150 | 8.0 | 12.0 | 0.00 | 0.00 | 0.00 | 1017.7 | |
| 20260906170329 | 0 | 114 | 7.0 | 12.0 | 0.00 | 0.00 | 0.00 | 1017.6 | |
| 20260906165829 | 0 | 122 | 6.0 | 14.0 | 0.00 | 0.00 | 0.00 | 1017.7 | |
| 20260906165330 | 0 | 149 | 6.0 | 14.0 | 0.00 | 0.00 | 0.00 | 1017.6 | |
| 20260906164829 | 0 | 112 | 5.0 | 13.0 | 0.00 | 0.00 | 0.00 | 1017.6 | |
| 20260906164329 | 0 | 129 | 8.0 | 13.0 | 0.00 | 0.00 | 0.00 | 1017.7 | |
| 20260906163830 | 0 | 114 | 8.0 | 14.0 | 0.00 | 0.00 | 0.00 | 1017.9 | |
| 20260906163359 | 0 | 190 | 7.0 | 14.0 | 0.00 | 0.00 | 0.00 | 1018.0 | |
| 20260906162624 | 0 | 180 | 7.0 | 12.0 | 0.00 | 0.00 | 0.00 | 1018.0 | |
| 20260906161831 | 0 | 97 | 7.0 | 12.0 | 0.00 | 0.00 | 0.00 | 1018.1 | |
| 20260906161330 | 0 | 145 | 7.0 | 12.0 | 0.00 | 0.00 | 0.00 | 1018.2 | |
| 20260906160830 | 0 | 149 | 7.0 | 12.0 | 0.00 | 0.00 | 0.00 | 1018.2 | |
| 20260906160330 | 0 | 166 | 6.0 | 12.0 | 0.00 | 0.00 | 0.00 | 1018.3 | |
| 20260906155830 | 0 | 160 | 5.0 | 12.0 | 0.00 | 0.00 | 0.00 | 1018.2 | |
| 20260906155329 | 0 | 95 | 5.0 | 11.0 | 0.00 | 0.00 | 0.00 | 1018.3 | |
| 20260906154829 | 0 | 163 | 6.0 | 12.0 | 0.00 | 0.00 | 0.00 | 1018.2 | |
| 20260906154329 | 0 | 142 | 5.0 | 12.0 | 0.00 | 0.00 | 0.00 | 1018.4 | |
| 20260906153828 | 0 | 118 | 4.0 | 9.0 | 0.00 | 0.00 | 0.00 | 1018.6 | |
| 20260906153329 | 0 | 175 | 5.0 | 9.0 | 0.00 | 0.00 | 0.00 | 1018.6 | |
| 20260906153123 | 0 | 119 | 7.0 | 10.0 | 0.00 | 0.00 | 0.00 | 1018.6 | |
| 20260906152618 | 0 | 131 | 7.0 | 10.0 | 0.00 | 0.00 | 0.00 | 1018.6 | |
| 20260906152123 | 74 | 132 | 6.0 | 10.0 | 0.00 | 0.00 | 0.00 | 87 | 1018.6 |
| 20260906151400 | 0 | 129 | 6.0 | 11.0 | 0.00 | 0.00 | 0.00 | 1018.6 | |
| 20260906150329 | 0 | 148 | 6.0 | 11.0 | 0.00 | 0.00 | 0.00 | 1018.5 | |
| 20260906145829 | 0 | 102 | 7.0 | 11.0 | 0.00 | 0.00 | 0.00 | 1018.6 | |
| 20260906145335 | 0 | 111 | 6.0 | 10.0 | 0.00 | 0.00 | 0.00 | 1018.5 | |
| 20260906144832 | 0 | 101 | 7.0 | 11.0 | 0.00 | 0.00 | 0.00 | 1018.5 | |
| 20260906144332 | 0 | 127 | 7.0 | 12.0 | 0.00 | 0.00 | 0.00 | 1018.4 | |
| 20260906143830 | 0 | 122 | 6.0 | 12.0 | 0.00 | 0.00 | 0.00 | 1018.4 | |
| 20260906143330 | 0 | 130 | 6.0 | 12.0 | 0.00 | 0.00 | 0.00 | 1018.5 | |
| 20260906142829 | 0 | 129 | 6.0 | 12.0 | 0.00 | 0.00 | 0.00 | 1018.5 | |
| 20260906142329 | 0 | 142 | 5.0 | 9.0 | 0.00 | 0.00 | 0.00 | 1018.5 | |
| 20260906141828 | 0 | 110 | 6.0 | 9.0 | 0.00 | 0.00 | 0.00 | 1018.5 | |
| 20260906141329 | 0 | 95 | 5.0 | 10.0 | 0.00 | 0.00 | 0.00 | 1018.5 | |
| 20260906140830 | 0 | 104 | 5.0 | 10.0 | 0.00 | 0.00 | 0.00 | 1018.5 | |
| 20260906140328 | 0 | 118 | 5.0 | 10.0 | 0.00 | 0.00 | 0.00 | 1018.5 | |
| 20260906135830 | 0 | 104 | 5.0 | 10.0 | 0.00 | 0.00 | 0.00 | 1018.6 | |
| 20260906135329 | 0 | 129 | 5.0 | 9.0 | 0.00 | 0.00 | 0.00 | 1018.5 | |
| 20260906134830 | 0 | 110 | 4.0 | 9.0 | 0.00 | 0.00 | 0.00 | 1018.6 | |
| 20260906134330 | 0 | 141 | 3.0 | 9.0 | 0.00 | 0.00 | 0.00 | 1018.5 | |
| 20260906133830 | 0 | 104 | 4.0 | 8.0 | 0.00 | 0.00 | 0.00 | 1018.4 | |
| 20260906133330 | 0 | 75 | 4.0 | 8.0 | 0.00 | 0.00 | 0.00 | 1018.5 | |
| 20260906132828 | 0 | 68 | 5.0 | 8.0 | 0.00 | 0.00 | 0.00 | 1018.4 | |
| 20260906132329 | 0 | 108 | 5.0 | 9.0 | 0.00 | 0.00 | 0.00 | 1018.4 | |
| 20260906131829 | 0 | 118 | 6.0 | 9.0 | 0.00 | 0.00 | 0.00 | 1018.5 | |
| 20260906131328 | 0 | 96 | 7.0 | 10.0 | 0.00 | 0.00 | 0.00 | 1018.5 | |
| 20260906131115 | 0 | 85 | 7.0 | 11.0 | 0.00 | 0.00 | 0.00 | 1018.4 | |
| 20260906130329 | 0 | 72 | 7.0 | 11.0 | 0.00 | 0.00 | 0.00 | 1018.3 | |
| 20260906130114 | 0 | 75 | 7.0 | 11.0 | 0.00 | 0.00 | 0.00 | 1018.3 | |
| 20260906125618 | 0 | 93 | 6.0 | 11.0 | 0.00 | 0.00 | 0.00 | 1018.4 | |
| 20260906124830 | 0 | 71 | 6.0 | 11.0 | 0.00 | 0.00 | 0.00 | 1018.4 | |
| 20260906124329 | 0 | 89 | 6.0 | 10.0 | 0.00 | 0.00 | 0.00 | 1018.3 | |
| 20260906123830 | 0 | 87 | 7.0 | 12.0 | 0.00 | 0.00 | 0.00 | 1018.2 | |
| 20260906123330 | 0 | 109 | 7.0 | 12.0 | 0.00 | 0.00 | 0.00 | 1018.2 | |
| 20260906122829 | 0 | 100 | 6.0 | 9.0 | 0.00 | 0.00 | 0.00 | 1018.2 | |
| 20260906122331 | 0 | 88 | 6.0 | 8.0 | 0.00 | 0.00 | 0.00 | 1018.1 | |
| 20260906121858 | 0 | 74 | 6.0 | 9.0 | 0.00 | 0.00 | 0.00 | 1018.1 | |
| 20260906120830 | 0 | 89 | 6.0 | 9.0 | 0.00 | 0.00 | 0.00 | 1018.1 | |
| 20260906120330 | 0 | 84 | 6.0 | 9.0 | 0.00 | 0.00 | 0.00 | 1018.0 | |
| 20260906115828 | 0 | 79 | 6.0 | 8.0 | 0.00 | 0.00 | 0.00 | 1018.0 | |
| 20260906115328 | 0 | 72 | 6.0 | 8.0 | 0.00 | 0.00 | 0.00 | 1018.0 | |
| 20260906114828 | 0 | 83 | 6.0 | 9.0 | 0.00 | 0.00 | 0.00 | 1017.9 | |
| 20260906114330 | 0 | 70 | 6.0 | 9.0 | 0.00 | 0.00 | 0.00 | 1017.9 | |
| 20260906113829 | 0 | 71 | 5.0 | 8.0 | 0.00 | 0.00 | 0.00 | 1018.1 | |
| 20260906113329 | 0 | 67 | 4.0 | 8.0 | 0.00 | 0.00 | 0.00 | 1018.0 | |
| 20260906112830 | 0 | 79 | 4.0 | 7.0 | 0.00 | 0.00 | 0.00 | 1018.0 | |
| 20260906112329 | 0 | 84 | 4.0 | 7.0 | 0.00 | 0.00 | 0.00 | 1018.1 | |
| 20260906112120 | 0 | 74 | 3.0 | 6.0 | 0.00 | 0.00 | 0.00 | 1018.1 | |
| 20260906111328 | 0 | 81 | 3.0 | 4.0 | 0.00 | 0.00 | 0.00 | 1018.2 | |
| 20260906110830 | 0 | 67 | 3.0 | 4.0 | 0.00 | 0.00 | 0.00 | 1018.0 | |
| 20260906110330 | 0 | 67 | 3.0 | 4.0 | 0.00 | 0.00 | 0.00 | 1018.0 | |
| 20260906105829 | 0 | 66 | 3.0 | 4.0 | 0.00 | 0.00 | 0.00 | 1018.0 | |
| 20260906105328 | 0 | 66 | 3.0 | 5.0 | 0.00 | 0.00 | 0.00 | 1017.9 | |
| 20260906104830 | 0 | 53 | 4.0 | 7.0 | 0.00 | 0.00 | 0.00 | 1017.9 | |
| 20260906104330 | 0 | 56 | 4.0 | 7.0 | 0.00 | 0.00 | 0.00 | 1017.9 | |
| 20260906103829 | 0 | 68 | 4.0 | 7.0 | 0.00 | 0.00 | 0.00 | 1017.8 | |
| 20260906103330 | 0 | 68 | 5.0 | 7.0 | 0.00 | 0.00 | 0.00 | 1017.9 | |
| 20260906102830 | 0 | 56 | 4.0 | 7.0 | 0.00 | 0.00 | 0.00 | 1017.8 | |
| 20260906102330 | 0 | 77 | 4.0 | 7.0 | 0.00 | 0.00 | 0.00 | 1017.8 | |
| 20260906101900 | 0 | 89 | 3.0 | 6.0 | 0.00 | 0.00 | 0.00 | 1017.6 | |
| 20260906100821 | 0 | 101 | 3.0 | 6.0 | 0.00 | 0.00 | 0.00 | 1017.6 | |
| 20260906100344 | 0 | 91 | 2.0 | 6.0 | 0.00 | 0.00 | 0.00 | 1017.5 | |
| 20260906095310 | 0 | 98 | 3.0 | 7.0 | 0.00 | 0.00 | 0.00 | 1017.2 | |
| 20260906094807 | 0 | 91 | 4.0 | 8.0 | 0.00 | 0.00 | 0.00 | 1017.0 | |
| 20260906094303 | 0 | 119 | 5.0 | 9.0 | 0.00 | 0.00 | 0.00 | 1017.0 | |
| 20260906093802 | 0 | 90 | 6.0 | 9.0 | 0.00 | 0.00 | 0.00 | 1016.9 | |
| 20260906093601 | 0 | 85 | 6.0 | 9.0 | 0.00 | 0.00 | 0.00 | 1016.9 | |
| 20260906092802 | 0 | 81 | 6.0 | 9.0 | 0.00 | 0.00 | 0.00 | 1016.9 | |
| 20260906092600 | 0 | 63 | 7.0 | 10.0 | 0.00 | 0.00 | 0.00 | 1016.9 | |
| 20260906091802 | 0 | 81 | 7.0 | 10.0 | 0.00 | 0.00 | 0.00 | 1016.9 | |
| 20260906091303 | 0 | 88 | 8.0 | 11.0 | 0.00 | 0.00 | 0.00 | 1016.9 | |
| 20260906090802 | 0 | 74 | 7.0 | 11.0 | 0.00 | 0.00 | 0.00 | 1017.0 | |
| 20260906090557 | 0 | 79 | 8.0 | 11.0 | 0.00 | 0.00 | 0.00 | 1017.0 | |
| 20260906085802 | 0 | 72 | 7.0 | 11.0 | 0.00 | 0.00 | 0.00 | 1017.0 | |
| 20260906085306 | 0 | 89 | 6.0 | 10.0 | 0.00 | 0.00 | 0.00 | 1017.0 | |
| 20260906084802 | 0 | 61 | 6.0 | 9.0 | 0.00 | 0.00 | 0.00 | 1017.0 | |
| 20260906084302 | 0 | 61 | 6.0 | 10.0 | 0.00 | 0.00 | 0.00 | 1017.1 | |
| 20260906083801 | 0 | 75 | 5.0 | 10.0 | 0.00 | 0.00 | 0.00 | 1017.2 | |
| 20260906083302 | 0 | 62 | 5.0 | 8.0 | 0.00 | 0.00 | 0.00 | 1017.2 | |
| 20260906082802 | 0 | 57 | 5.0 | 8.0 | 0.00 | 0.00 | 0.00 | 1017.1 | |
| 20260906082300 | 0 | 61 | 5.0 | 8.0 | 0.00 | 0.00 | 0.00 | 1017.1 | |
| 20260906081801 | 0 | 60 | 5.0 | 8.0 | 0.00 | 0.00 | 0.00 | 1017.1 | |
| 20260906081300 | 0 | 66 | 3.0 | 7.0 | 0.00 | 0.00 | 0.00 | 1017.2 | |
| 20260906081055 | 0 | 70 | 4.0 | 7.0 | 0.00 | 0.00 | 0.00 | 1017.2 | |
| 20260906080554 | 0 | 74 | 5.0 | 8.0 | 0.00 | 0.00 | 0.00 | 1017.0 | |
| 20260906075802 | 0 | 57 | 5.0 | 8.0 | 0.00 | 0.00 | 0.00 | 1016.9 | |
| 20260906075301 | 0 | 64 | 5.0 | 8.0 | 0.00 | 0.00 | 0.00 | 1016.9 | |
| 20260906074802 | 0 | 64 | 5.0 | 8.0 | 0.00 | 0.00 | 0.00 | 1016.9 | |
| 20260906074301 | 0 | 66 | 4.0 | 7.0 | 0.00 | 0.00 | 0.00 | 1017.0 | |
| 20260906073802 | 0 | 77 | 4.0 | 7.0 | 0.00 | 0.00 | 0.00 | 1017.1 | |
| 20260906073555 | 0 | 74 | 5.0 | 8.0 | 0.00 | 0.00 | 0.00 | 1017.1 | |
| 20260906073056 | 0 | 72 | 5.0 | 8.0 | 0.00 | 0.00 | 0.00 | 1017.2 | |
| 20260906072305 | 0 | 62 | 5.0 | 7.0 | 0.00 | 0.00 | 0.00 | 1017.3 | |
| 20260906071801 | 0 | 71 | 5.0 | 8.0 | 0.00 | 0.00 | 0.00 | 1017.3 | |
| 20260906071302 | 0 | 52 | 5.0 | 9.0 | 0.00 | 0.00 | 0.00 | 1017.3 | |
| 20260906070801 | 0 | 74 | 6.0 | 9.0 | 0.00 | 0.00 | 0.00 | 1017.4 | |
| 20260906070301 | 0 | 74 | 6.0 | 8.0 | 0.00 | 0.00 | 0.00 | 1017.4 | |
| 20260906065805 | 0 | 57 | 6.0 | 8.0 | 0.00 | 0.00 | 0.00 | 1017.4 | |
| 20260906065300 | 0 | 61 | 6.0 | 8.0 | 0.00 | 0.00 | 0.00 | 1017.5 | |
| 20260906065055 | 0 | 58 | 6.0 | 8.0 | 0.00 | 0.00 | 0.00 | 1017.6 | |
| 20260906064259 | 0 | 66 | 6.0 | 8.0 | 0.00 | 0.00 | 0.00 | 1017.6 | |
| 20260906063754 | 0 | 64 | 6.0 | 9.0 | 0.00 | 0.00 | 0.00 | 1017.5 | |
| 20260906063252 | 0 | 70 | 6.0 | 9.0 | 0.00 | 0.00 | 0.00 | 1017.4 | |
| 20260906063048 | 0 | 74 | 5.0 | 9.0 | 0.00 | 0.00 | 0.00 | 1017.5 | |
| 20260906062254 | 0 | 72 | 6.0 | 10.0 | 0.00 | 0.00 | 0.00 | 1017.6 | |
| 20260906062046 | 0 | 70 | 7.0 | 10.0 | 0.00 | 0.00 | 0.00 | 1017.4 | |
| 20260906061251 | 0 | 66 | 8.0 | 10.0 | 0.00 | 0.00 | 0.00 | 1017.3 | |
| 20260906060751 | 0 | 77 | 7.0 | 9.0 | 0.00 | 0.00 | 0.00 | 1017.3 | |
| 20260906060249 | 0 | 70 | 6.0 | 9.0 | 0.00 | 0.00 | 0.00 | 1017.4 | |
| 20260906055748 | 0 | 68 | 6.0 | 9.0 | 0.00 | 0.00 | 0.00 | 1017.5 | |
| 20260906055249 | 0 | 58 | 6.0 | 8.0 | 0.00 | 0.00 | 0.00 | 1017.4 | |
| 20260906054747 | 0 | 78 | 6.0 | 8.0 | 0.00 | 0.00 | 0.00 | 1017.4 | |
| 20260906054540 | 0 | 76 | 6.0 | 8.0 | 0.00 | 0.00 | 0.00 | 1017.3 | |
| 20260906053747 | 0 | 71 | 6.0 | 8.0 | 0.00 | 0.00 | 0.00 | 1017.1 | |
| 20260906053314 | 0 | 81 | 5.0 | 8.0 | 0.00 | 0.00 | 0.00 | 1017.2 | |
| 20260906052544 | 0 | 85 | 5.0 | 7.0 | 0.00 | 0.00 | 0.00 | 1017.1 | |
| 20260906051745 | 0 | 87 | 6.0 | 8.0 | 0.00 | 0.00 | 0.00 | 1017.1 | |
| 20260906051245 | 67 | 89 | 6.0 | 8.0 | 0.00 | 0.00 | 0.00 | 91 | 1017.1 |
| 20260906051036 | 0 | 85 | 6.0 | 9.0 | 0.00 | 0.00 | 0.00 | 1017.1 | |
| 20260906050245 | 0 | 106 | 5.0 | 9.0 | 0.00 | 0.00 | 0.00 | 1017.2 | |
| 20260906045743 | 0 | 104 | 5.0 | 8.0 | 0.00 | 0.00 | 0.00 | 1017.3 | |
| 20260906045539 | 0 | 92 | 6.0 | 8.0 | 0.00 | 0.00 | 0.00 | 1017.3 | |
| 20260906045037 | 0 | 104 | 6.0 | 9.0 | 0.00 | 0.00 | 0.00 | 1017.4 | |
| 20260906044244 | 0 | 74 | 7.0 | 9.0 | 0.00 | 0.00 | 0.00 | 1017.4 | |
| 20260906044038 | 0 | 77 | 7.0 | 9.0 | 0.00 | 0.00 | 0.00 | 1017.3 | |
| 20260906043244 | 0 | 90 | 7.0 | 9.0 | 0.00 | 0.00 | 0.00 | 1017.4 | |
| 20260906042743 | 0 | 79 | 7.0 | 9.0 | 0.00 | 0.00 | 0.00 | 1017.3 | |
| 20260906042242 | 0 | 87 | 7.0 | 9.0 | 0.00 | 0.00 | 0.00 | 1017.3 | |
| 20260906041744 | 0 | 87 | 7.0 | 9.0 | 0.00 | 0.00 | 0.00 | 1017.3 | |
| 20260906041243 | 0 | 91 | 7.0 | 9.0 | 0.00 | 0.00 | 0.00 | 1017.3 | |
| 20260906040742 | 0 | 88 | 7.0 | 10.0 | 0.00 | 0.00 | 0.00 | 1017.4 | |
| 20260906040242 | 0 | 68 | 7.0 | 10.0 | 0.00 | 0.00 | 0.00 | 1017.3 | |
| 20260906035743 | 0 | 67 | 6.0 | 9.0 | 0.00 | 0.00 | 0.00 | 1017.2 | |
| 20260906035242 | 0 | 77 | 6.0 | 9.0 | 0.00 | 0.00 | 0.00 | 1017.3 | |
| 20260906034744 | 0 | 72 | 6.0 | 8.0 | 0.00 | 0.00 | 0.00 | 1017.3 | |
| 20260906034244 | 0 | 65 | 6.0 | 8.0 | 0.00 | 0.00 | 0.00 | 1017.3 | |
| 20260906033741 | 0 | 78 | 6.0 | 8.0 | 0.00 | 0.00 | 0.00 | 1017.2 | |
| 20260906033241 | 0 | 72 | 6.0 | 8.0 | 0.00 | 0.00 | 0.00 | 1017.3 | |
| 20260906032741 | 0 | 85 | 5.0 | 8.0 | 0.00 | 0.00 | 0.00 | 1017.3 | |
| 20260906032544 | 0 | 80 | 5.0 | 8.0 | 0.00 | 0.00 | 0.00 | 1017.3 | |
| 20260906031739 | 0 | 73 | 5.0 | 8.0 | 0.00 | 0.00 | 0.00 | 1017.4 | |
| 20260906031232 | 0 | 71 | 5.0 | 8.0 | 0.00 | 0.00 | 0.00 | 1017.5 | |
| 20260906031029 | 0 | 76 | 5.0 | 8.0 | 0.00 | 0.00 | 0.00 | 1017.4 | |
| 20260906030232 | 0 | 74 | 5.0 | 8.0 | 0.00 | 0.00 | 0.00 | 1017.5 | |
| 20260906025733 | 0 | 64 | 5.0 | 9.0 | 0.00 | 0.00 | 0.00 | 1017.4 | |
| 20260906025232 | 0 | 53 | 5.0 | 9.0 | 0.00 | 0.00 | 0.00 | 1017.4 | |
| 20260906024731 | 0 | 73 | 5.0 | 9.0 | 0.00 | 0.00 | 0.00 | 1017.5 | |
| 20260906024230 | 0 | 53 | 5.0 | 9.0 | 0.00 | 0.00 | 0.00 | 1017.7 | |
| 20260906023730 | 0 | 51 | 5.0 | 8.0 | 0.00 | 0.00 | 0.00 | 1017.7 | |
| 20260906023523 | 0 | 52 | 4.0 | 6.0 | 0.00 | 0.00 | 0.00 | 1017.5 | |
| 20260906023030 | 0 | 56 | 4.0 | 7.0 | 0.00 | 0.00 | 0.00 | 1017.5 | |
| 20260906022230 | 0 | 51 | 5.0 | 7.0 | 0.00 | 0.00 | 0.00 | 1017.5 | |
| 20260906021729 | 0 | 31 | 5.0 | 7.0 | 0.00 | 0.00 | 0.00 | 1017.5 | |
| 20260906021229 | 0 | 27 | 5.0 | 7.0 | 0.00 | 0.00 | 0.00 | 1017.6 | |
| 20260906020729 | 0 | 14 | 5.0 | 7.0 | 0.00 | 0.00 | 0.00 | 1017.5 | |
| 20260906020528 | 0 | 17 | 5.0 | 7.0 | 0.00 | 0.00 | 0.00 | 1017.5 | |
| 20260906015730 | 0 | 10 | 4.0 | 6.0 | 0.00 | 0.00 | 0.00 | 1017.4 | |
| 20260906015230 | 0 | 22 | 4.0 | 6.0 | 0.00 | 0.00 | 0.00 | 1017.1 | |
| 20260906014730 | 0 | 28 | 3.0 | 5.0 | 0.00 | 0.00 | 0.00 | 1017.0 | |
| 20260906014229 | 0 | 0 | 3.0 | 4.0 | 0.00 | 0.00 | 0.00 | 1017.0 | |
| 20260906013729 | 0 | 5 | 3.0 | 4.0 | 0.00 | 0.00 | 0.00 | 1016.9 | |
| 20260906013230 | 0 | 5 | 4.0 | 5.0 | 0.00 | 0.00 | 0.00 | 1016.6 | |
| 20260906012726 | 0 | 10 | 3.0 | 5.0 | 0.00 | 0.00 | 0.00 | 1016.4 | |
| 20260906012520 | 0 | 22 | 3.0 | 4.0 | 0.00 | 0.00 | 0.00 | 1016.3 | |
| 20260906012015 | 0 | 25 | 2.0 | 4.0 | 0.00 | 0.00 | 0.00 | 1016.2 | |
| 20260906011230 | 0 | 70 | 2.0 | 2.0 | 0.00 | 0.00 | 0.00 | 1016.1 | |
| 20260906010728 | 0 | 70 | 1.0 | 2.0 | 0.00 | 0.00 | 0.00 | 1016.0 | |
| 20260906010227 | 0 | 70 | 1.0 | 2.0 | 0.00 | 0.00 | 0.00 | 1015.8 | |
| 20260906005720 | 0 | 70 | 2.0 | 2.0 | 0.00 | 0.00 | 0.00 | 1015.8 | |
| 20260906005209 | 0 | 70 | 2.0 | 3.0 | 0.00 | 0.00 | 0.00 | 1015.6 | |
| 20260906004706 | 0 | 70 | 1.0 | 3.0 | 0.00 | 0.00 | 0.00 | 1015.6 | |
| 20260906004204 | 0 | 70 | 1.0 | 2.0 | 0.00 | 0.00 | 0.00 | 1015.5 | |
| 20260906003704 | 0 | 70 | 1.0 | 2.0 | 0.00 | 0.00 | 0.00 | 1015.5 | |
| 20260906003211 | 0 | 70 | 1.0 | 3.0 | 0.00 | 0.00 | 0.00 | 1015.4 | |
| 20260906002739 | 0 | 78 | 1.0 | 4.0 | 0.00 | 0.00 | 0.00 | 1015.3 | |
| 20260906001706 | 0 | 68 | 5.0 | 8.0 | 0.00 | 0.00 | 0.00 | 1015.1 | |
| 20260906001205 | 0 | 91 | 7.0 | 9.0 | 0.00 | 0.00 | 0.00 | 1015.0 | |
| 20260906000702 | 0 | 90 | 7.0 | 13.0 | 0.00 | 0.00 | 0.00 | 1015.0 | |
| 20260906000204 | 0 | 88 | 7.0 | 13.0 | 0.00 | 0.00 | 0.00 | 1015.0 | |
| 20260905235731 | 0 | 100 | 8.0 | 13.0 | 0.00 | 0.00 | 0.00 | 1014.9 | |
| 20260905234703 | 0 | 108 | 6.0 | 12.0 | 0.00 | 0.00 | 0.00 | 1015.0 | |
| 20260905234202 | 0 | 108 | 7.0 | 12.0 | 0.00 | 0.00 | 0.00 | 1014.9 | |
| 20260905233703 | 0 | 91 | 8.0 | 13.0 | 0.00 | 0.00 | 0.00 | 1014.9 | |
| 20260905233202 | 0 | 80 | 8.0 | 13.0 | 0.00 | 0.00 | 0.00 | 1015.0 | |
| 20260905232702 | 0 | 99 | 8.0 | 13.0 | 0.00 | 0.00 | 0.00 | 1014.9 | |
| 20260905232202 | 0 | 110 | 9.0 | 13.0 | 0.00 | 0.00 | 0.00 | 1014.9 | |
| 20260905231702 | 0 | 106 | 8.0 | 12.0 | 0.00 | 0.00 | 0.00 | 1014.9 | |
| 20260905231201 | 0 | 69 | 7.0 | 11.0 | 0.00 | 0.00 | 0.00 | 1015.1 | |
| 20260905230701 | 0 | 77 | 6.0 | 11.0 | 0.00 | 0.00 | 0.00 | 1015.1 | |
| 20260905230201 | 0 | 80 | 7.0 | 13.0 | 0.00 | 0.00 | 0.00 | 1015.1 | |
| 20260905225701 | 0 | 74 | 9.0 | 16.0 | 0.00 | 0.00 | 0.00 | 1015.2 | |
| 20260905225201 | 0 | 85 | 9.0 | 16.0 | 0.00 | 0.00 | 0.00 | 1015.2 | |
| 20260905224700 | 0 | 80 | 9.0 | 14.0 | 0.00 | 0.00 | 0.00 | 1015.3 | |
| 20260905224201 | 0 | 95 | 7.0 | 14.0 | 0.00 | 0.00 | 0.00 | 1015.3 | |
| 20260905223655 | 0 | 28 | 6.0 | 12.0 | 0.00 | 0.00 | 0.00 | 1015.4 | |
| 20260905223154 | 0 | 84 | 9.0 | 14.0 | 0.00 | 0.00 | 0.00 | 1015.4 | |
| 20260905222948 | 0 | 91 | 10.0 | 17.0 | 0.00 | 0.00 | 0.00 | 1015.4 | |
| 20260905222154 | 0 | 68 | 10.0 | 17.0 | 0.00 | 0.00 | 0.00 | 1015.4 | |
| 20260905221654 | 0 | 55 | 10.0 | 18.0 | 0.00 | 0.00 | 0.00 | 1015.4 | |
| 20260905221154 | 0 | 87 | 11.0 | 18.0 | 0.00 | 0.00 | 0.00 | 1015.4 | |
| 20260905220654 | 0 | 72 | 11.0 | 18.0 | 0.00 | 0.00 | 0.00 | 1015.3 | |
| 20260905220154 | 0 | 107 | 12.0 | 18.0 | 0.00 | 0.00 | 0.00 | 1015.4 | |
| 20260905215654 | 0 | 58 | 11.0 | 18.0 | 0.00 | 0.00 | 0.00 | 1015.3 | |
| 20260905215156 | 0 | 77 | 11.0 | 16.0 | 0.00 | 0.00 | 0.00 | 1015.2 | |
| 20260905214655 | 0 | 58 | 11.0 | 17.0 | 0.00 | 0.00 | 0.00 | 1015.3 | |
| 20260905214154 | 0 | 74 | 10.0 | 17.0 | 0.00 | 0.00 | 0.00 | 1015.3 | |
| 20260905213650 | 0 | 86 | 10.0 | 18.0 | 0.00 | 0.00 | 0.00 | 1015.3 | |
| 20260905213150 | 0 | 76 | 10.0 | 18.0 | 0.00 | 0.00 | 0.00 | 1015.4 | |
| 20260905212649 | 0 | 64 | 10.0 | 16.0 | 0.00 | 0.00 | 0.00 | 1015.5 | |
| 20260905212150 | 0 | 64 | 10.0 | 16.0 | 0.00 | 0.00 | 0.00 | 1015.5 | |
| 20260905211943 | 0 | 53 | 10.0 | 15.0 | 0.00 | 0.00 | 0.00 | 1015.8 | |
| 20260905211150 | 0 | 77 | 10.0 | 15.0 | 0.00 | 0.00 | 0.00 | 1015.8 | |
| 20260905210650 | 0 | 92 | 9.0 | 15.0 | 0.00 | 0.00 | 0.00 | 1015.7 | |
| 20260905210151 | 0 | 75 | 9.0 | 14.0 | 0.00 | 0.00 | 0.00 | 1015.8 | |
| 20260905205650 | 0 | 82 | 9.0 | 14.0 | 0.00 | 0.00 | 0.00 | 1016.1 | |
| 20260905205149 | 0 | 81 | 9.0 | 14.0 | 0.00 | 0.00 | 0.00 | 1016.1 | |
| 20260905204651 | 0 | 89 | 8.0 | 14.0 | 0.00 | 0.00 | 0.00 | 1016.1 | |
| 20260905204148 | 0 | 95 | 8.0 | 12.0 | 0.00 | 0.00 | 0.00 | 1016.2 | |
| 20260905203649 | 0 | 96 | 8.0 | 13.0 | 0.00 | 0.00 | 0.00 | 1016.1 | |
| 20260905203439 | 0 | 62 | 7.0 | 13.0 | 0.00 | 0.00 | 0.00 | 1016.4 | |
| 20260905202649 | 0 | 133 | 6.0 | 14.0 | 0.00 | 0.00 | 0.00 | 1016.3 | |
| 20260905202147 | 0 | 99 | 7.0 | 14.0 | 0.00 | 0.00 | 0.00 | 1016.4 | |
| 20260905201644 | 0 | 39 | 8.0 | 14.0 | 0.00 | 0.00 | 0.00 | 1016.6 | |
| 20260905201143 | 0 | 69 | 9.0 | 14.0 | 0.00 | 0.00 | 0.00 | 1016.6 | |
| 20260905200644 | 0 | 74 | 7.0 | 13.0 | 0.00 | 0.00 | 0.00 | 1016.8 | |
| 20260905200144 | 0 | 70 | 7.0 | 14.0 | 0.00 | 0.00 | 0.00 | 1016.9 | |
| 20260905195645 | 0 | 82 | 8.0 | 14.0 | 0.00 | 0.00 | 0.00 | 1016.9 | |
| 20260905195141 | 0 | 61 | 7.0 | 13.0 | 0.00 | 0.00 | 0.00 | 1017.0 | |
| 20260905194933 | 0 | 46 | 6.0 | 13.0 | 0.00 | 0.00 | 0.00 | 1017.0 | |
| 20260905194141 | 0 | 65 | 4.0 | 9.0 | 0.00 | 0.00 | 0.00 | 1017.2 | |
| 20260905193929 | 0 | 25 | 5.0 | 11.0 | 0.00 | 0.00 | 0.00 | 1017.3 | |
| 20260905193140 | 0 | 114 | 6.0 | 11.0 | 0.00 | 0.00 | 0.00 | 1017.3 | |
| 20260905192641 | 0 | 89 | 6.0 | 10.0 | 0.00 | 0.00 | 0.00 | 1017.4 | |
| 20260905192141 | 0 | 82 | 5.0 | 10.0 | 0.00 | 0.00 | 0.00 | 1017.3 | |
| 20260905191639 | 0 | 161 | 4.0 | 8.0 | 0.00 | 0.00 | 0.00 | 1017.3 | |
| 20260905191141 | 0 | 166 | 4.0 | 10.0 | 0.00 | 0.00 | 0.00 | 1017.3 | |
| 20260905190639 | 0 | 203 | 4.0 | 10.0 | 0.00 | 0.00 | 0.00 | 1017.5 | |
| 20260905190141 | 0 | 159 | 5.0 | 10.0 | 0.00 | 0.00 | 0.00 | 1017.5 | |
| 20260905185639 | 0 | 134 | 5.0 | 10.0 | 0.00 | 0.00 | 0.00 | 1017.5 | |
| 20260905185141 | 0 | 130 | 5.0 | 10.0 | 0.00 | 0.00 | 0.00 | 1017.4 | |
| 20260905184639 | 0 | 123 | 6.0 | 10.0 | 0.00 | 0.00 | 0.00 | 1017.5 | |
| 20260905184433 | 0 | 137 | 5.0 | 11.0 | 0.00 | 0.00 | 0.00 | 1017.5 | |
| 20260905183637 | 0 | 165 | 6.0 | 12.0 | 0.00 | 0.00 | 0.00 | 1017.4 |